RH
57 88 94 70 69 84 90 68 68 51 45 50 59 60 52 44 48 48 48 46 40 41 37 51 94 92 90 93 87 81 73 67 65 63 61 57 54 50 47 42 39 34 29 24
84 79 60 63 65 74 69 97 97 62 50 52 52 56 51 47 45 39 45 44 44 42 41 38 92 98 98 98 92 87 80 76 66 63 61 58 53 49 46 42 40 36 28 25
91 74 57 61 62 96 82 95 90 98 79 53 53 59 49 45 45 42 38 43 42 41 41 37 87 95 97 96 95 93 90 83 68 69 65 65 54 46 43 41 40 33 29 26
71 57 50 43 53 58 92 66 77 79 100 93 76 89 67 49 46 44 41 40 40 46 40 36 73 94 90 94 96 94 97 90 79 69 70 60 52 48 46 41 39 34 29 26
67 62 62 64 72 49 63 50 86 95 98 97 98 99 85 47 56 47 40 39 43 39 47 40 58 88 92 93 96 98 99 96 87 75 70 64 77 57 48 42 37 32 28 26
49 39 51 60 59 61 68 72 62 79 77 96 82 97 64 67 53 46 39 36 35 43 44 43 42 80 86 91 95 96 96 99 90 82 82 76 58 52 52 44 37 34 30 27
62 46 81 65 74 58 95 90 93 94 93 86 73 93 90 49 44 41 41 36 33 33 42 46 59 78 84 84 90 96 96 98 91 85 81 70 60 53 47 45 44 36 30 28
86 62 52 44 94 96 89 92 83 90 75 61 59 94 66 52 42 34 31 30 31 33 33 44 53 74 87 84 94 96 94 96 95 92 85 79 59 56 50 46 48 42 36 29
99 63 39 39 38 74 82 98 65 84 94 71 56 64 56 52 46 37 33 28 36 34 36 36 41 78 88 83 90 94 96 98 98 96 91 80 69 64 56 50 48 46 39 30
75 93 36 43 49 63 95 92 93 92 96 86 94 75 62 58 46 39 30 51 49 33 41 45 42 77 89 86 88 92 94 98 97 96 89 84 73 66 58 53 52 46 40 32
83 96 59 41 81 95 83 93 93 93 93 96 94 79 51 44 38 56 62 58 55 53 45 44 48 60 85 91 88 89 94 96 98 97 92 90 81 73 67 64 58 48 42 34
77 89 78 58 85 85 72 95 94 94 92 96 94 97 70 61 56 55 59 53 48 46 47 47 45 59 85 91 90 95 92 93 96 96 93 95 84 78 73 68 63 50 43 36
85 88 83 61 68 56 83 79 94 92 93 84 95 98 66 65 62 59 57 56 51 42 48 52 52 68 88 90 85 93 92 93 96 95 94 96 84 78 76 66 61 52 44 37
54 83 84 90 81 72 86 81 89 96 97 91 96 98 99 89 75 68 73 64 49 44 51 56 59 56 88 89 85 92 91 93 96 96 96 92 85 80 75 72 62 52 45 36
72 81 61 54 52 56 91 93 93 95 92 96 96 92 96 86 66 65 60 53 48 41 54 61 62 65 64 89 87 90 91 95 96 96 97 97 92 87 83 78 64 59 53 44
62 78 67 74 43 47 92 92 88 90 93 91 82 92 94 70 62 59 68 67 63 47 57 64 69 82 76 81 84 86 91 95 96 96 96 98 92 86 80 78 70 54 50 47
74 81 78 74 49 82 88 95 94 85 87 86 89 94 83 79 73 64 77 81 78 76 66 88 94 93 91 76 81 82 87 93 97 96 96 98 95 88 82 69 60 58 51 47
63 75 68 84 66 94 96 87 90 95 92 89 87 88 76 76 72 62 69 87 87 91 96 97 98 96 98 72 81 81 90 95 96 97 98 99 97 90 83 78 69 59 51 49
66 76 92 91 88 81 66 78 69 93 94 74 83 79 78 75 64 65 64 75 88 91 88 94 99 100 100 84 82 87 94 96 97 98 99 98 94 89 86 84 72 58 54 56
57 68 89 85 93 92 92 58 58 76 92 70 75 87 88 81 84 76 69 82 83 85 88 93 97 98 98 100 94 95 97 97 96 98 99 100 99 98 98 96 89 80 68 75
91 92 94 83 90 89 77 58 47 69 86 71 77 92 91 93 91 93 95 80 79 86 91 95 98 100 100 100 99 100 100 99 98 97 96 96 94 98 100 100 98 95 92 95
95 97 87 84 86 89 61 63 75 88 69 70 81 92 94 88 88 87 90 88 85 87 90 96 98 100 100 99 100 100 100 100 100 98 98 100 100 100 100 98 100 100 100 97
95 95 95 82 73 59 47 68 61 61 74 72 90 88 91 91 90 90 90 88 87 88 92 95 97 100 100 100 99 100 99 100 100 100 100 100 100 100 100 100 100 100 100 98
80 73 88 76 61 62 53 58 59 63 74 68 85 92 94 94 91 91 89 88 89 91 94 97 95 97 100 100 100 100 100 99 100 100 100 100 100 100 100 99 99 99 98 98
92 85 91 86 61 65 55 63 69 75 73 80 82 93 95 95 94 92 92 91 92 95 98 98 97 98 99 99 99 99 100 100 100 100 100 100 99 98 99 99 99 98 99 97
92 96 98 94 66 86 84 73 81 87 88 88 87 92 95 96 95 94 95 97 97 96 97 97 98 98 100 100 99 99 98 99 98 98 98 98 98 98 98 98 99 98 97 97
Wind_Speed
9 10 18 29 27 23 22 24 22 27 11 13 24 29 24 18 9 12 20 20 20 17 11 22 31 35 36 38 38 35 32 38 40 37 38 36 37 37 34 32 32 32 31 29
5 14 18 21 22 23 27 27 21 16 9 19 22 27 27 19 24 21 11 18 19 15 15 17 28 31 34 36 38 36 37 35 39 35 35 38 43 40 37 35 33 32 32 30
11 16 23 18 20 20 27 27 25 13 8 17 18 28 26 20 20 22 17 9 13 19 19 20 20 31 32 36 38 37 35 36 43 30 35 31 32 35 35 34 33 33 31 31
13 12 14 21 19 18 21 23 23 22 9 14 14 10 25 20 19 18 14 15 14 11 17 19 20 25 34 34 37 38 37 37 37 41 36 41 32 35 34 39 38 35 33 31
13 21 20 20 21 21 20 24 18 14 14 13 10 7 4 18 17 21 22 11 9 12 13 18 20 31 35 37 36 36 39 40 39 45 46 48 38 30 37 38 40 37 34 33
17 19 17 15 20 22 22 20 19 15 16 14 16 13 13 9 23 21 13 16 15 12 12 14 21 32 36 36 38 37 39 39 43 42 40 40 40 33 34 39 42 39 35 34
15 17 2 8 21 13 11 11 8 12 11 12 7 7 10 8 14 17 21 23 19 18 15 14 17 20 29 36 37 38 39 37 42 39 40 46 42 43 44 40 36 44 41 36
8 20 16 19 4 10 21 8 6 15 10 10 7 7 8 19 14 3 10 12 20 19 19 15 15 20 29 35 36 35 38 38 41 41 42 39 53 46 39 44 35 34 38 43
6 15 24 14 19 11 4 8 15 3 1 5 9 8 6 8 21 14 7 7 8 17 17 19 15 19 29 36 38 36 37 39 42 39 39 43 42 39 37 40 42 35 37 42
6 14 9 18 15 8 8 8 6 6 5 8 5 10 6 14 15 16 3 6 6 1 9 9 14 17 31 38 40 37 42 44 45 42 44 42 43 43 44 40 39 43 41 42
2 1 16 14 6 12 8 7 6 0 3 2 4 3 6 11 11 13 9 8 9 8 4 6 12 17 32 36 39 39 40 39 41 44 42 37 37 37 39 38 42 45 44 44
4 3 12 21 5 8 5 7 7 4 3 2 1 3 8 16 14 17 9 8 7 7 7 6 0 14 26 31 34 37 39 41 42 42 41 38 39 38 40 39 38 43 46 46
5 3 11 14 4 3 5 13 12 14 5 3 1 6 6 16 14 10 11 9 7 8 7 8 8 7 18 28 33 34 38 41 42 41 40 37 40 40 39 39 40 44 46 47
12 4 3 8 13 14 21 25 19 9 2 4 2 10 13 17 10 10 9 8 8 8 6 6 7 5 13 26 33 34 36 39 41 40 38 40 41 42 41 37 42 46 47 49
3 7 14 16 16 18 19 21 17 6 4 4 8 13 16 17 16 13 13 13 10 8 4 5 6 4 8 20 29 35 37 39 40 38 38 39 40 40 39 36 37 41 45 44
2 4 14 16 13 11 16 20 26 18 15 12 11 10 18 15 15 20 16 16 14 10 5 6 7 7 4 21 28 33 35 35 40 40 38 36 39 38 38 40 41 38 37 40
2 2 7 6 15 17 4 19 16 16 25 16 16 11 17 19 18 15 15 14 13 13 7 8 7 6 7 20 33 32 34 35 38 37 37 37 37 37 37 39 42 42 40 40
3 4 3 5 12 5 5 17 11 10 16 19 15 18 19 18 16 3 14 17 15 14 10 10 9 11 19 24 33 34 34 33 35 34 34 34 35 36 37 41 38 38 40 40
2 2 4 3 4 5 12 22 17 9 7 21 19 20 20 22 10 1 20 19 15 13 11 8 15 16 21 8 23 26 28 33 32 28 30 33 35 35 34 33 36 35 37 35
9 2 0 4 4 7 12 22 21 8 3 25 21 19 21 19 10 5 19 18 14 13 15 15 18 17 20 17 13 22 24 26 28 32 32 33 36 37 38 42 42 34 37 37
6 4 1 5 2 4 16 18 10 8 8 22 19 16 16 11 8 15 13 11 12 13 16 17 15 13 15 12 15 14 13 18 23 30 33 32 34 35 35 38 47 46 40 40
5 4 4 5 4 4 20 6 7 6 10 15 15 12 15 14 13 11 10 10 11 12 15 15 11 13 15 10 14 19 17 23 33 37 37 38 39 39 42 47 40 46 48 46
4 2 2 2 3 4 8 5 6 10 13 14 13 14 13 14 10 10 9 9 9 10 11 11 9 11 15 12 15 20 18 27 33 35 34 35 36 37 39 44 43 40 41 44
10 9 2 6 3 16 13 12 15 15 14 14 12 14 11 11 9 8 7 7 7 11 11 10 11 13 14 16 18 24 28 30 33 34 34 36 38 35 35 35 37 41 39 35
2 6 7 5 4 17 3 20 18 18 13 13 12 12 9 9 7 7 6 7 7 10 12 13 13 14 16 20 21 22 26 35 34 34 33 33 34 35 33 30 31 33 31 39
3 4 2 3 12 10 15 18 20 13 13 12 12 10 9 8 7 6 6 8 10 11 14 16 17 19 20 23 23 23 25 31 35 33 31 32 34 34 34 36 35 34 37 37
Wind_Direction
303 250 224 237 250 261 264 251 246 236 216 210 218 233 226 222 220 213 219 216 215 213 197 180 184 184 187 185 186 187 181 169 167 159 160 165 168 169 174 178 175 174 173 174
290 249 269 269 261 259 263 270 265 239 196 216 228 241 237 212 222 238 208 218 211 201 189 191 178 180 183 184 184 186 183 177 166 168 167 167 169 173 175 177 174 175 173 176
289 283 286 288 280 270 253 252 259 272 238 232 227 240 248 212 209 223 224 201 206 207 197 193 177 180 182 185 183 182 179 178 169 170 162 158 159 165 166 172 170 172 177 177
285 262 281 291 283 282 273 257 265 253 271 230 207 246 234 210 207 204 224 214 211 179 198 198 177 179 184 186 179 182 179 173 169 172 161 156 162 165 170 172 172 174 177 178
286 289 287 282 264 269 275 253 255 258 258 254 226 246 249 198 215 216 219 211 210 218 176 192 182 176 182 179 179 184 181 177 174 170 168 167 165 179 168 172 171 171 173 176
287 280 265 260 283 284 264 261 239 252 248 246 230 239 218 177 206 212 214 229 215 202 200 181 180 177 175 178 178 186 186 179 178 175 170 173 169 167 165 169 169 168 170 175
328 325 340 12 339 304 295 188 217 229 218 240 191 235 261 188 187 199 212 225 216 207 193 183 171 179 175 178 182 186 184 177 175 174 172 169 166 170 167 170 169 167 167 173
337 330 335 306 324 294 285 266 203 212 213 224 174 229 232 225 236 210 192 212 219 206 197 188 171 176 177 177 180 184 183 175 177 172 170 174 173 174 173 170 174 175 169 176
308 303 305 307 318 303 289 209 220 34 2 192 183 209 309 188 220 226 226 193 164 195 192 194 185 174 175 179 180 180 181 174 175 175 172 172 173 172 175 175 177 180 176 179
266 297 305 318 315 339 283 306 153 186 209 192 176 174 216 182 187 224 154 89 72 112 177 182 193 166 172 176 181 178 181 177 178 174 173 174 175 177 176 176 178 184 184 181
242 276 312 333 341 335 340 27 332 65 200 171 137 228 237 184 120 114 118 92 70 62 89 204 180 166 171 175 177 178 181 178 178 176 177 176 179 178 178 180 177 185 183 183
284 241 307 306 292 41 11 12 16 334 267 248 258 74 342 107 108 106 88 86 80 69 60 68 77 159 169 175 176 175 179 180 180 178 178 178 177 176 178 181 181 184 182 184
329 321 328 340 343 287 353 335 324 302 245 219 108 132 10 66 58 59 83 66 48 32 30 35 34 135 169 172 175 174 179 179 178 177 178 173 176 176 177 177 176 181 181 181
348 253 194 285 280 288 305 302 308 283 293 338 29 88 36 28 23 41 31 32 29 14 30 27 29 39 177 175 175 174 179 178 176 175 176 173 176 177 175 174 175 177 181 180
105 283 299 294 294 294 294 286 286 284 286 26 69 66 16 14 18 14 9 4 5 22 14 35 357 20 170 178 179 175 176 177 176 177 178 179 179 179 175 173 173 176 179 179
267 275 313 307 301 330 314 10 36 36 20 51 50 55 3 350 5 14 10 4 1 355 337 19 18 351 8 181 179 179 175 175 176 179 183 178 179 177 173 169 171 170 168 168
233 317 321 287 323 309 47 12 34 46 35 23 34 345 347 354 357 355 356 359 343 326 338 33 10 331 298 193 176 181 178 172 176 181 180 178 177 175 169 168 166 165 165 165
346 328 284 293 317 54 55 18 358 52 46 33 18 2 350 335 317 292 16 354 356 8 23 21 9 348 334 180 177 179 173 173 174 177 176 173 171 170 165 162 162 161 162 161
45 3 310 323 315 270 15 349 338 346 48 22 3 353 346 337 328 63 4 355 2 4 6 8 9 356 353 91 159 169 169 166 166 168 164 164 163 158 156 153 152 154 149 147
339 326 154 335 320 28 356 333 341 143 108 9 357 345 341 344 11 326 334 332 359 3 8 6 7 1 16 26 126 149 156 161 165 160 158 158 156 156 153 146 142 141 137 134
332 355 33 300 302 88 354 341 329 45 316 332 340 333 329 331 301 295 315 355 360 6 7 5 8 8 13 35 115 83 114 127 136 139 140 143 147 147 145 141 141 139 135 127
10 337 350 330 5 354 0 7 45 305 305 320 329 322 312 316 322 341 349 359 4 3 9 9 12 15 27 51 102 81 80 120 131 134 133 137 141 140 140 136 135 135 137 133
58 1 289 38 294 52 0 58 3 339 330 325 324 325 334 320 336 345 353 4 6 8 12 17 31 36 43 73 103 93 100 116 119 118 120 124 127 132 137 135 134 133 137 135
345 12 43 321 65 342 340 354 347 338 325 319 322 320 323 324 343 345 360 4 10 15 21 26 47 54 49 69 89 106 115 114 113 114 117 122 123 123 127 130 134 134 135 136
305 332 314 278 342 337 354 335 326 326 322 328 337 330 334 330 352 7 13 19 25 34 36 46 56 65 66 76 83 99 112 117 111 112 116 118 120 121 120 121 129 130 133 137
331 332 339 280 312 287 285 309 314 322 329 347 345 347 357 5 18 23 35 36 45 51 55 62 66 72 72 78 84 95 106 113 116 114 116 118 118 118 116 114 107 121 129 135